Location: Lussas
(44.6119°N, 4.4726°E)
Time: 16:05:36
(UTC+00:00)

Gbstr 26 Del rocket - Pass Details

Date: 26 November 2020
Orbit: 493 x 1263 km, 51.8° (Epoch: 27 January)

Event Time Altitude Azimuth Distance (km) Brightness Sun altitude
Exits shadow 04:56:27 36° 353° (N) 796 3.4 -20.3°
Maximum altitude 04:57:04 40° 19° (NNE) 753 3.5 -20.2°
Drops below altitude 10° 05:00:45 10° 90° (E) 1,760 6.6 -19.6°
Sets 05:03:09 0° 98° (E) 2,717 8.0 -19.2°
